DW8266 Weather Reports


Display with metric or nautical units.
time (UTC)temp
F
wind
direction
speed
MPH
gust
MPH
rain 1hr
in
rain 24hr
in
rain mn
in
humidity
%
barometer
mb
20260503230057 81 90 0.0 3.0 0.00 0.00 0.00 46 1018.2
20260503224558 81 160 1.0 5.0 0.00 0.00 0.00 44 1018.3
20260503223058 81 147 1.0 8.0 0.00 0.00 0.00 46 1018.5
20260503221600 80 163 2.0 7.0 0.00 0.00 0.00 45 1018.8
20260503220057 80 217 3.0 6.0 0.00 0.00 0.00 45 1019.0
20260503214558 82 198 0.0 5.0 0.00 0.00 0.00 46 1018.9
20260503213110 81 166 1.0 5.0 0.00 0.00 0.00 45 1019.1
20260503211620 81 198 1.0 6.0 0.00 0.00 0.00 48 1019.3
20260503210101 82 140 1.0 6.0 0.00 0.00 0.00 45 1019.7
20260503204600 82 169 3.0 6.0 0.00 0.00 0.00 44 1019.7
20260503203113 81 92 0.0 3.0 0.00 0.00 0.00 44 1020.1
20260503201558 82 196 2.0 6.0 0.00 0.00 0.00 50 1020.1
20260503200059 82 58 0.0 4.0 0.00 0.00 0.00 46 1020.5
20260503200004 82 148 0.0 4.0 0.00 0.00 0.00 46 1020.5
20260503194600 82 122 0.0 4.0 0.00 0.00 0.00 46 1020.6
20260503193100 80 192 1.0 7.0 0.00 0.00 0.00 44 1020.8
20260503191604 81 65 0.0 6.0 0.00 0.00 0.00 49 1021.1
20260503190004 81 83 0.0 4.0 0.00 0.00 0.00 48 1021.4
20260503184600 80 92 2.0 7.0 0.00 0.00 0.00 47 1021.5
20260503183059 80 179 3.0 7.0 0.00 0.00 0.00 47 1021.7
20260503181605 80 58 1.0 6.0 0.00 0.00 0.00 52 1021.9
20260503180117 79 202 1.0 6.0 0.00 0.00 0.00 51 1022.2
20260503174558 80 155 1.0 3.0 0.00 0.00 0.00 47 1022.6
20260503173102 79 40 0.0 2.0 0.00 0.00 0.00 48 1022.8
20260503171600 78 105 0.0 5.0 0.00 0.00 0.00 56 1023.0
20260503130104 61 124 0.0 0.0 0.00 0.00 0.00 93 1022.4
20260503100104 60 124 0.0 0.0 0.00 0.00 0.00 92 1021.1
20260503081559 60 124 0.0 0.0 0.00 0.00 0.00 89 1021.0
20260503071605 62 124 0.0 0.0 0.00 0.00 0.00 89 1021.2
20260503070105 61 124 0.0 0.0 0.00 0.00 0.00 88 1021.3
20260503060111 63 124 0.0 0.0 0.00 0.00 0.00 85 1021.2
20260503054611 63 124 0.0 0.0 0.00 0.00 0.00 84 1021.3
20260503053100 63 124 0.0 0.0 0.00 0.00 0.00 83 1021.2
20260503051559 64 124 0.0 0.0 0.00 0.00 0.00 82 1021.2
20260503050005 64 124 0.0 0.0 0.00 0.00 0.00 81 1021.1
20260503044609 64 124 0.0 0.0 0.00 0.00 0.00 80 1021.0
20260503043112 65 124 0.0 0.0 0.00 0.00 0.00 80 1020.9
20260503041604 65 124 0.0 0.0 0.00 0.00 0.00 79 1020.9
20260503040109 65 124 0.0 0.0 0.00 0.00 0.00 78 1021.0
20260503034558 66 124 0.0 0.0 0.00 0.00 0.00 76 1020.7
20260503033109 66 124 0.0 0.0 0.00 0.00 0.00 75 1020.6
20260503031605 67 124 0.0 0.0 0.00 0.00 0.00 75 1020.5
20260503030059 67 124 0.0 0.0 0.00 0.00 0.00 75 1020.4
20260503024600 67 124 0.0 0.0 0.00 0.01 0.00 73 1020.3
20260503023105 68 124 0.0 0.0 0.00 0.01 0.00 70 1020.2
20260503021607 69 124 0.0 0.0 0.00 0.01 0.00 68 1020.1
20260503020108 70 124 0.0 0.0 0.00 0.01 0.00 66 1019.9
20260503014559 70 124 0.0 0.0 0.00 0.06 0.00 63 1019.9
20260503011608 72 124 0.0 0.0 0.00 0.06 0.00 58 1019.3
20260503010100 73 124 0.0 1.0 0.00 0.06 0.00 55 1019.3
20260503004558 74 111 0.0 2.0 0.00 0.15 0.00 54 1019.1
20260503003106 74 109 0.0 3.0 0.00 0.15 0.00 53 1018.8
20260503001600 75 58 0.0 2.0 0.00 0.15 0.00 52 1018.7
20260503000110 75 66 0.0 3.0 0.00 0.15 0.00 52 1018.7
20260502234559 76 133 0.0 3.0 0.00 0.30 0.00 51 1018.6
20260502233101 76 67 0.0 4.0 0.00 0.30 0.00 50 1018.5
20260502231611 77 103 0.0 7.0 0.00 0.30 0.00 51 1018.5